Theta_e
330 337 345 350 350 350 351 352 353 354 353 351 349 347 346 345 344 344 344 344 344 344 343 342 342 342 341 341 341 340 339 338 338 338 338 338 337 337 338 339 341 341 342 341 341 341 340 338 339 339 338 338 338 337 338 340 340 340 339 338 338 337 337 337 336 333 332 329 328 328 328 328 328 328 327 326 325 323 320 318 316 315 314 314 314
325 337 347 348 349 350 350 352 353 353 353 352 351 348 347 346 345 344 344 344 345 344 344 343 343 342 340 340 339 339 338 338 338 338 338 338 338 338 338 340 341 341 341 342 341 341 340 339 338 339 339 338 338 339 340 340 339 339 338 337 337 337 336 337 336 333 332 330 328 327 325 324 324 325 325 325 324 322 319 317 315 314 314 313 313
324 335 346 346 347 350 350 352 353 353 353 353 352 349 348 346 345 345 344 344 345 344 344 344 343 341 340 339 339 338 338 338 338 339 339 339 339 338 339 341 342 341 342 342 341 341 340 339 339 339 339 339 338 339 341 340 339 339 338 337 337 337 336 336 336 334 333 331 330 329 327 325 324 323 323 323 322 320 318 316 315 314 313 313 313
325 330 340 347 349 349 349 351 352 352 352 352 352 350 348 347 345 345 345 345 345 344 344 345 343 341 340 339 339 338 338 339 340 340 340 340 340 339 340 342 342 342 342 342 342 341 340 339 339 339 339 339 338 339 341 340 339 339 339 338 337 338 337 336 337 336 333 332 332 331 330 329 327 324 323 322 321 319 317 316 315 314 314 313 313
325 328 334 345 352 351 349 350 350 351 351 351 351 350 348 347 346 346 345 345 345 345 345 345 344 341 340 339 339 339 340 340 341 342 341 341 340 340 341 342 343 342 342 342 342 341 341 340 339 339 338 339 339 339 340 340 339 338 339 340 338 338 338 336 337 336 333 331 331 332 331 331 329 324 322 321 320 319 317 316 315 314 314 313 313
324 326 329 337 346 349 352 352 350 350 351 350 350 349 348 348 347 346 346 346 346 345 346 346 344 342 341 340 339 340 341 342 342 342 342 341 340 340 341 343 343 343 343 343 342 341 341 340 340 339 338 339 338 338 340 340 339 338 339 339 339 339 338 337 336 335 334 333 333 333 333 333 328 323 324 323 321 320 317 316 315 313 313 313 313
321 323 325 329 339 344 348 352 352 351 350 351 351 350 350 349 348 347 346 346 346 346 346 346 344 343 342 342 341 342 342 342 342 341 341 340 340 341 342 343 344 343 343 342 342 342 341 341 340 339 339 338 338 338 339 340 339 338 338 339 339 339 338 338 336 335 335 334 334 333 334 332 326 324 327 325 322 320 318 316 315 313 313 313 312
318 321 322 324 332 339 343 347 350 350 350 352 352 351 351 350 348 347 347 346 346 346 346 346 345 344 344 343 343 343 344 343 342 342 341 341 342 343 344 344 344 344 343 343 343 342 341 341 340 339 339 339 338 338 339 338 337 337 338 339 338 338 338 338 338 336 334 334 333 333 333 330 326 327 327 325 324 322 319 317 315 313 314 313 312
317 318 321 322 327 333 337 341 346 349 350 351 352 352 351 350 349 348 347 346 345 346 345 345 346 345 345 345 345 345 345 343 342 342 343 342 343 344 344 344 343 343 343 343 343 342 342 341 340 339 339 339 338 337 337 336 335 335 336 338 338 337 337 337 338 337 335 334 333 332 332 330 328 329 328 326 325 323 320 318 316 315 315 314 313
317 316 318 320 323 328 332 337 342 347 350 351 352 352 352 349 348 347 347 346 346 346 346 345 346 346 347 346 346 346 345 344 343 343 343 344 344 344 343 343 343 343 343 343 343 342 341 341 340 340 340 339 339 338 338 337 336 335 334 336 337 337 337 337 338 337 335 334 334 333 333 330 328 328 328 326 324 323 321 320 318 317 316 314 313
317 317 317 319 321 325 329 333 338 345 350 350 351 352 351 349 347 347 346 345 346 347 346 346 346 347 348 348 347 347 346 344 343 343 344 344 344 343 343 343 343 343 343 343 343 342 342 341 340 340 340 340 339 339 339 338 337 336 335 334 336 337 337 337 336 336 335 335 334 333 333 331 329 328 327 326 324 324 323 321 319 317 316 315 313
316 316 317 318 320 323 327 331 335 342 349 350 351 352 351 349 348 347 346 345 346 347 347 347 346 347 348 349 348 348 347 345 344 344 344 344 344 343 343 343 343 343 343 342 342 342 342 341 340 340 340 340 340 339 339 339 338 337 336 335 335 335 336 337 336 335 335 334 334 333 332 331 329 327 326 325 324 325 323 321 319 316 316 315 313
316 316 317 318 320 324 327 329 333 340 348 350 350 351 350 348 348 347 346 345 345 346 347 347 347 348 348 348 348 348 348 347 345 344 343 343 343 343 343 343 343 343 343 342 342 342 341 341 341 340 340 340 340 339 339 340 339 339 338 335 334 335 334 335 336 335 334 334 334 333 331 330 328 327 325 323 324 325 323 322 318 316 317 315 313
315 316 317 318 320 324 326 327 329 337 346 350 349 349 349 348 348 348 347 346 345 345 347 347 348 348 348 348 347 348 349 348 347 345 344 343 343 343 343 343 342 342 342 342 342 342 341 341 341 340 340 339 339 339 339 339 340 339 338 335 334 334 334 335 335 334 333 333 334 333 331 330 328 326 325 323 324 325 323 321 318 317 317 315 314
315 316 317 318 320 324 326 326 327 334 344 349 348 349 349 348 348 348 347 347 345 345 346 347 348 348 348 348 347 347 348 348 348 347 346 345 345 344 343 343 343 342 342 342 342 341 341 341 341 340 340 339 339 339 338 338 339 339 338 337 336 334 334 334 334 333 332 330 331 330 330 329 327 327 325 322 324 325 323 321 319 318 317 315 314
315 316 317 318 320 324 327 328 328 332 342 347 348 349 349 349 348 348 348 347 346 345 345 346 348 348 349 348 346 347 347 348 348 348 347 346 345 344 344 344 343 343 343 342 342 341 340 340 340 340 339 339 339 338 338 337 337 337 337 336 335 332 332 333 332 332 332 330 328 329 329 327 326 327 325 323 324 326 324 321 320 319 318 316 315
314 316 317 319 321 324 327 329 329 331 339 345 347 349 350 350 349 348 348 347 346 344 344 345 347 348 348 347 346 347 347 347 348 347 347 346 345 344 344 345 344 343 342 342 341 340 339 339 339 339 339 338 338 337 337 336 336 335 335 334 331 328 329 330 330 331 331 330 329 328 328 327 326 326 325 324 325 325 324 321 320 320 320 319 317
313 314 316 318 320 323 326 328 329 331 336 343 347 349 350 350 350 348 348 348 346 345 344 345 346 347 348 347 346 346 346 347 347 346 346 347 346 344 344 345 344 343 342 341 340 339 339 339 338 338 338 337 337 336 335 335 334 333 332 331 329 326 326 326 327 328 328 329 328 326 326 326 326 326 324 324 324 324 323 322 321 321 321 321 319
314 313 315 318 319 321 324 327 328 330 333 339 345 348 350 350 349 349 348 348 347 346 345 345 346 347 347 347 346 346 346 346 346 346 346 347 346 344 344 345 343 342 341 340 339 338 338 338 338 337 337 336 335 335 334 333 332 331 330 329 327 326 325 324 324 324 325 325 325 324 323 323 323 322 322 323 323 323 323 321 322 322 322 322 321
314 314 315 317 320 321 322 324 327 328 331 335 342 347 349 349 350 349 348 348 347 347 347 346 346 347 347 346 345 345 346 346 345 345 345 346 345 344 344 344 342 341 340 339 339 337 337 337 337 336 335 334 334 333 332 331 330 330 329 328 327 326 326 325 324 323 323 323 323 322 322 322 321 320 321 322 322 322 322 322 322 322 322 322 321
315 316 316 316 320 322 321 322 324 327 329 333 339 345 348 349 350 350 349 349 348 348 348 347 346 347 347 346 345 346 345 345 345 345 345 345 344 343 342 342 341 340 339 338 338 337 337 336 336 336 334 333 332 331 331 330 329 329 328 327 326 325 325 325 324 323 322 322 322 321 320 319 319 319 321 321 322 322 322 323 322 322 322 321 319
316 317 316 316 319 321 321 321 323 325 329 333 336 342 346 349 350 350 349 349 349 349 349 347 345 345 346 346 346 345 345 345 345 345 344 345 344 342 342 341 340 339 338 338 338 337 337 336 335 334 333 332 331 330 329 328 328 328 327 326 325 325 324 324 323 322 321 320 320 319 319 318 318 320 321 321 322 322 323 323 322 321 321 320 318
319 319 318 318 319 321 321 321 323 325 328 333 336 340 344 348 349 350 350 349 350 350 349 347 346 345 345 346 346 345 345 344 344 344 344 344 343 341 341 341 339 338 338 337 337 337 336 336 335 334 332 330 330 329 329 328 328 328 327 326 324 324 324 323 322 321 320 320 320 320 319 319 319 321 322 321 322 322 322 322 321 321 321 318 317
320 321 320 319 319 321 322 321 323 325 329 333 338 342 345 346 347 348 349 349 349 350 348 347 346 344 345 345 345 345 344 344 344 343 343 343 342 341 341 340 338 337 337 337 337 337 336 335 334 333 331 330 329 329 328 328 328 327 326 325 324 323 322 321 321 320 319 319 319 319 319 318 319 321 321 320 320 320 321 321 320 320 319 318 316
320 322 323 321 319 320 321 322 323 325 328 333 339 343 345 345 346 346 348 348 349 349 347 346 345 344 344 345 345 344 344 343 343 343 343 342 341 340 339 338 337 337 337 337 336 336 335 334 334 332 331 330 329 329 328 328 327 326 325 324 323 321 320 320 320 319 318 317 318 318 317 316 317 319 319 319 319 320 320 319 319 318 318 316 315
319 321 324 323 321 319 320 322 323 324 327 331 337 340 341 343 346 346 347 347 347 347 346 345 344 344 344 344 344 344 343 343 343 343 342 341 339 338 337 337 336 336 336 336 336 335 334 334 333 332 330 329 329 328 328 327 326 325 324 323 322 320 319 318 317 316 316 316 316 316 315 314 315 317 318 318 319 319 318 318 318 317 316 315 314
318 319 323 325 323 320 320 322 324 325 326 329 334 337 338 341 345 346 346 346 347 347 345 344 344 344 344 343 343 343 343 343 343 342 342 340 339 337 337 336 335 335 336 336 335 335 334 333 332 331 330 329 328 328 327 326 325 324 323 322 321 319 316 314 313 314 314 315 314 314 314 314 314 316 317 318 318 318 317 317 317 316 315 314 313
318 320 323 326 325 322 321 322 324 326 326 329 333 336 337 341 345 346 346 346 347 346 344 344 344 344 343 343 343 343 343 343 342 341 341 339 338 337 336 335 335 335 336 336 335 334 333 333 331 330 329 329 328 327 326 326 324 323 322 322 320 318 315 313 312 313 314 314 314 314 314 314 315 316 317 317 317 317 317 316 316 315 314 313 313
319 322 326 328 327 324 321 322 324 325 327 331 335 337 340 343 345 345 345 345 345 344 343 343 343 343 343 343 343 343 343 342 341 341 340 339 338 337 336 335 334 336 336 336 335 334 332 332 330 329 329 328 327 327 325 325 324 323 322 321 319 318 316 315 314 314 315 315 315 315 315 313 312 312 313 315 316 316 316 316 315 314 313 313 313
319 324 329 330 328 325 322 324 326 326 327 332 336 338 341 344 345 345 344 344 343 342 343 343 343 343 342 342 342 343 342 341 341 340 339 338 337 336 335 334 335 335 335 335 334 333 332 331 330 329 328 328 327 326 324 323 322 322 321 320 319 318 317 316 315 315 316 315 315 315 312 309 308 309 310 312 313 313 314 315 314 314 313 313 312
319 324 330 331 329 325 323 324 327 328 329 332 336 339 341 343 345 345 344 343 342 342 342 342 342 342 342 342 342 342 342 341 340 340 339 338 336 335 335 334 334 335 335 334 333 332 331 331 329 329 328 328 327 325 322 321 319 319 320 320 319 318 317 316 316 316 316 315 314 315 311 307 307 309 308 309 311 311 311 312 312 312 312 312 312
321 324 330 331 329 325 324 326 329 331 331 333 338 340 341 343 344 344 343 341 341 342 341 341 342 342 341 342 342 342 341 341 340 339 338 336 335 334 334 334 334 334 334 334 333 332 331 330 329 329 328 327 326 323 321 319 318 317 318 318 318 317 316 315 315 315 315 314 314 315 314 311 310 309 307 308 309 309 309 310 309 309 310 310 310
326 328 330 331 327 324 326 328 330 332 333 335 339 340 340 342 342 342 341 341 341 341 341 342 342 341 342 342 342 342 341 340 339 338 337 336 335 334 333 333 334 334 334 333 332 331 331 330 329 328 328 327 325 322 319 318 317 315 315 317 317 316 315 315 315 315 314 314 314 315 315 314 311 308 307 307 307 307 308 307 307 306 306 305 305
330 331 330 328 325 324 327 330 331 332 334 337 339 339 340 341 341 341 341 341 341 341 341 341 341 341 342 341 341 341 340 340 338 337 336 335 334 333 333 334 334 333 333 333 332 331 330 330 329 328 328 327 324 321 318 317 316 314 314 316 317 315 314 315 315 315 315 314 314 314 314 314 311 309 309 309 307 305 305 304 303 303 303 301 300
332 332 330 326 324 325 329 332 334 335 337 339 338 339 341 342 341 341 340 340 341 341 341 341 341 341 341 341 341 340 340 339 337 336 335 335 334 333 333 333 333 332 333 332 332 331 330 329 329 328 327 327 323 320 318 316 315 314 313 315 316 315 315 315 315 315 315 315 315 314 313 313 312 311 310 310 308 306 305 304 304 305 304 302 300
333 333 330 326 325 328 331 335 336 337 339 339 339 341 342 342 341 341 340 340 340 340 341 341 341 341 341 341 340 339 339 338 336 336 335 334 334 333 332 332 332 332 333 332 331 331 330 329 329 328 327 326 323 320 318 316 315 313 312 314 316 315 315 315 315 315 314 314 315 314 313 313 313 312 311 308 307 307 307 306 306 306 305 304 302
335 334 330 327 328 331 335 337 338 338 340 340 341 342 341 340 341 341 341 341 340 340 341 341 340 340 340 340 339 339 338 337 336 335 335 334 334 333 332 331 331 332 332 331 331 330 330 329 328 327 327 326 322 319 317 316 315 313 312 314 316 315 315 315 315 314 314 314 314 314 313 314 314 313 311 307 306 307 308 308 307 307 306 305 303
335 334 332 331 333 336 338 340 341 341 341 341 341 341 341 341 341 341 341 341 340 341 341 340 340 340 340 339 339 338 337 336 335 335 334 334 333 332 331 331 332 332 331 331 330 330 330 330 328 327 327 325 322 320 317 316 315 313 313 315 316 315 314 315 314 314 313 313 313 312 312 313 314 313 310 308 306 307 308 308 308 307 306 305 303
336 337 335 337 339 339 340 341 341 341 340 341 341 341 341 341 341 341 341 341 341 341 341 340 340 339 339 339 338 337 336 335 335 334 334 333 333 332 331 331 332 332 331 331 330 330 330 330 329 327 326 324 323 321 317 316 315 313 313 315 316 315 315 314 314 313 312 312 311 309 308 310 312 312 309 308 307 306 308 308 307 306 305 304 304
338 338 337 339 340 339 340 340 339 340 340 341 342 341 341 342 342 341 341 341 341 340 340 340 340 339 339 339 338 336 335 334 335 334 333 333 332 331 331 332 332 332 331 331 330 330 330 329 328 327 325 324 323 321 318 317 315 313 313 315 316 315 315 314 314 313 312 312 312 310 308 308 309 309 307 307 307 306 307 309 307 306 305 305 304
338 338 338 339 339 339 341 340 340 342 341 341 342 342 341 342 341 341 342 341 341 340 340 340 339 339 338 338 337 336 335 334 335 334 333 332 332 331 331 332 332 332 331 330 330 329 328 327 326 325 324 323 323 322 319 317 316 314 313 314 315 316 315 314 314 313 312 312 312 312 310 308 307 307 307 307 307 307 307 308 308 307 306 305 303
340 339 339 340 340 340 341 341 342 342 342 342 342 342 341 342 342 342 342 341 340 340 339 339 339 338 338 337 336 335 334 334 335 334 333 333 332 331 331 332 332 331 330 329 328 327 326 325 323 323 323 322 322 322 320 318 316 315 313 313 314 315 315 314 313 312 313 313 312 312 311 309 306 305 306 306 307 307 306 306 308 307 305 304 302
340 340 339 340 341 341 341 342 342 342 342 342 342 342 341 341 342 342 341 340 339 339 339 338 338 338 337 337 336 334 334 334 334 333 333 332 331 330 330 331 331 330 329 328 326 325 325 324 322 321 322 320 320 320 320 318 317 316 314 312 313 314 312 311 312 313 313 313 313 312 310 308 304 303 304 305 306 307 305 304 305 305 304 302 301
339 340 340 341 342 342 342 342 342 342 342 342 342 341 341 341 341 341 340 339 339 338 338 337 337 337 337 336 335 334 334 334 333 333 332 331 330 329 329 329 329 327 326 325 324 324 324 323 322 321 321 319 318 319 319 318 317 317 315 313 312 312 311 310 311 312 313 313 312 310 309 306 303 301 302 304 305 306 304 303 303 303 302 301 300
341 340 340 341 342 342 342 342 342 341 342 341 341 341 341 341 340 339 339 339 339 339 339 337 336 336 336 335 334 334 334 333 332 332 331 331 330 329 328 327 327 326 325 324 322 323 324 323 321 320 319 318 317 317 318 318 317 316 315 313 311 311 310 309 309 311 312 311 310 308 307 305 301 299 300 303 305 305 303 301 300 300 300 300 300
339 340 341 340 341 341 341 342 342 341 341 341 341 341 340 339 338 338 338 338 338 339 338 336 335 335 335 335 334 334 333 332 331 331 330 329 329 328 326 326 326 327 327 326 324 323 323 322 321 320 319 317 316 316 316 317 316 315 314 313 311 310 310 309 309 310 310 309 308 307 304 301 298 298 300 302 304 303 301 298 298 299 299 300 301
335 338 340 340 340 341 341 341 342 342 341 341 341 341 339 338 337 337 338 337 337 337 336 335 334 333 333 334 334 334 333 332 331 330 329 328 327 326 325 325 326 327 329 328 325 324 323 321 321 320 319 317 316 315 314 314 315 313 312 312 311 310 310 309 308 308 308 308 308 305 300 297 297 298 300 301 302 302 300 299 299 300 301 301 302
332 334 338 340 340 340 340 340 341 341 340 340 340 340 338 337 337 337 337 337 336 335 335 334 333 332 332 332 332 332 332 331 330 330 328 327 326 325 324 325 325 327 329 327 325 325 324 322 321 319 317 315 314 313 313 314 315 314 313 312 311 310 310 309 308 308 308 308 306 302 298 298 300 300 300 301 302 302 302 301 302 302 302 302 303
332 333 335 338 339 339 339 338 339 340 341 340 339 337 336 336 336 336 336 335 334 333 334 333 332 332 332 331 330 330 330 330 329 328 326 325 325 324 325 325 326 327 328 326 325 325 325 324 322 320 317 314 313 313 315 316 316 316 315 314 313 312 311 310 308 308 308 308 306 302 300 302 303 302 301 302 302 303 303 303 303 303 303 303 303
332 332 333 334 335 336 336 336 336 337 338 338 337 336 337 336 335 335 335 333 331 332 333 333 332 332 331 329 329 329 330 329 327 324 322 322 322 323 325 325 325 326 326 325 325 324 324 323 322 321 319 318 317 319 320 318 316 316 316 315 314 313 311 309 308 307 308 309 308 305 303 303 304 304 303 302 302 302 303 303 302 302 303 303 304
331 332 332 331 331 332 332 333 333 333 334 334 334 335 336 337 336 334 332 331 330 331 332 331 331 331 329 329 328 328 327 326 323 321 320 320 320 320 322 323 324 325 325 324 324 323 323 322 321 320 320 319 320 322 322 319 316 316 315 314 313 312 310 309 308 307 307 308 309 307 304 303 303 304 303 303 303 303 303 303 302 301 301 302 303
Wind_Speed
13 15 15 16 15 16 16 17 18 18 18 20 21 21 21 22 22 21 22 22 21 20 20 19 19 18 18 17 17 16 16 15 14 15 14 13 13 14 14 14 15 16 16 14 13 12 11 11 11 11 10 10 10 9 9 9 9 8 8 8 9 10 11 13 15 17 18 16 14 14 13 14 15 15 13 11 11 10 9 9 8 8 8 8 7
14 13 13 14 13 14 15 15 19 20 20 22 22 22 21 22 23 23 23 23 22 21 20 18 18 17 17 16 16 15 15 15 15 15 14 14 14 15 15 15 16 16 16 14 14 13 11 11 11 11 11 11 10 9 9 10 9 9 9 9 9 10 11 13 15 15 14 15 14 13 11 12 13 12 11 10 10 9 8 8 8 8 8 7 7
16 13 13 15 15 16 16 15 18 20 21 22 22 22 22 23 25 24 24 24 22 21 20 18 17 16 15 14 15 14 14 14 14 13 14 14 14 15 16 16 17 17 16 15 14 13 12 12 11 11 12 12 11 10 10 10 10 10 11 10 10 10 10 13 15 12 11 16 15 10 8 7 8 8 8 8 9 8 8 8 8 8 8 6 6
16 15 14 16 18 18 17 16 18 19 20 21 22 22 22 24 26 25 25 24 23 22 20 18 17 16 15 13 13 13 12 13 13 13 14 15 15 16 16 16 17 18 17 16 14 14 13 12 11 12 12 12 11 11 11 11 10 11 12 11 11 11 10 13 14 12 13 18 11 5 7 7 4 6 8 8 8 8 7 7 7 7 7 6 5
13 14 12 13 17 19 19 19 19 20 20 22 24 24 23 24 26 25 25 23 22 23 21 19 17 17 16 14 14 13 12 13 14 15 15 15 15 16 16 17 18 18 17 16 15 14 13 12 12 12 12 12 12 11 11 11 10 11 12 12 12 12 10 12 14 12 14 20 14 7 6 5 4 10 11 8 8 7 7 7 7 7 7 6 5
11 12 11 10 12 16 18 19 20 20 21 23 25 25 23 23 24 25 25 23 21 23 23 20 19 19 19 18 17 16 15 15 16 15 15 15 16 16 17 18 18 17 17 16 15 14 14 13 12 12 12 12 12 11 10 11 11 11 12 13 13 13 10 12 15 13 13 17 15 10 6 5 10 13 8 5 8 9 7 6 6 7 7 6 6
11 12 12 10 10 12 14 15 18 19 20 22 23 23 23 23 24 26 25 23 21 22 23 22 21 21 21 19 18 17 16 15 15 15 15 15 15 16 17 18 18 18 17 16 15 14 14 13 13 12 12 11 11 11 10 12 13 11 12 14 13 13 12 13 16 15 15 15 14 10 5 9 20 19 9 7 8 8 9 8 7 7 7 7 6
12 12 13 12 11 11 12 13 14 15 16 19 20 21 23 23 23 24 24 22 21 22 24 23 22 22 22 19 17 17 15 14 14 15 15 15 15 16 18 18 18 18 17 16 15 15 15 14 14 13 12 11 11 11 12 15 16 11 12 15 15 16 16 16 16 16 17 17 17 12 5 11 22 19 14 13 8 7 9 9 9 9 7 7 7
14 14 13 12 12 13 12 12 13 13 14 16 18 19 21 22 22 24 24 22 21 23 25 25 22 22 22 20 18 17 15 14 14 15 15 16 17 18 19 18 18 17 16 16 16 15 15 15 14 13 12 11 11 11 12 13 14 13 14 16 17 19 19 18 17 17 19 18 18 16 9 12 15 10 11 13 9 8 8 9 12 12 9 8 7
14 15 14 13 14 14 13 13 14 14 15 16 17 17 19 21 23 25 26 23 21 24 25 25 24 22 22 21 20 18 16 15 15 16 17 17 19 19 18 17 16 16 15 15 15 15 15 15 15 13 13 12 11 11 10 11 13 15 17 18 18 20 18 18 19 19 18 17 18 19 15 15 15 11 11 13 11 10 8 10 14 14 11 10 9
13 14 14 14 15 15 14 14 15 14 15 16 17 17 19 22 23 26 26 24 23 24 26 27 26 24 22 22 21 20 18 18 17 17 18 18 18 18 17 16 15 16 15 14 14 14 15 15 14 14 13 13 12 11 11 11 13 15 17 20 21 21 18 16 20 21 17 17 20 20 19 19 18 16 15 14 12 11 9 10 14 14 12 11 10
14 14 14 14 14 14 14 14 15 14 15 17 18 19 21 22 24 25 26 26 25 25 28 29 28 25 22 21 21 21 20 20 20 19 18 18 18 17 16 16 16 16 15 15 14 14 14 14 14 14 13 13 13 12 11 11 11 14 16 19 22 23 21 17 18 21 20 20 21 22 22 21 18 16 17 15 11 9 10 11 13 14 11 10 12
16 14 13 13 12 11 12 14 14 13 15 18 19 20 21 22 24 25 26 28 27 26 28 30 29 26 22 21 21 21 21 22 21 20 19 18 18 18 17 16 16 17 17 17 16 14 14 13 13 14 13 13 13 13 12 10 10 11 13 19 24 22 21 21 18 17 20 20 19 21 25 24 19 17 19 19 13 10 10 11 12 13 10 10 12
15 15 14 13 12 11 12 14 15 14 17 19 20 20 20 22 24 25 26 28 28 27 29 30 30 26 22 21 22 23 23 22 21 19 19 18 18 19 18 17 17 18 17 16 15 14 13 13 13 13 13 13 13 13 12 10 9 11 11 15 25 23 19 21 19 18 21 20 17 21 26 25 20 16 17 19 18 15 13 13 14 11 9 11 11
13 14 15 15 14 13 13 15 16 16 18 19 20 21 21 22 24 25 26 28 28 28 29 31 29 25 22 22 22 24 25 23 20 19 20 19 18 19 19 18 18 17 16 15 13 12 13 13 13 12 12 12 12 12 12 10 9 10 9 8 16 23 22 22 22 21 23 23 22 22 24 24 21 18 15 16 18 17 15 17 17 12 8 9 9
11 12 14 15 15 14 14 15 16 17 19 20 20 21 22 22 24 26 27 27 28 28 28 29 28 25 23 23 23 25 25 23 21 19 20 19 18 19 19 18 17 16 15 14 12 12 13 13 12 12 11 10 10 10 11 11 9 8 8 5 7 17 24 27 25 21 21 24 23 21 21 22 23 22 19 17 17 16 15 18 19 16 10 7 7
12 12 12 13 13 13 14 15 16 18 19 19 21 22 23 24 25 27 27 26 27 28 28 29 28 26 24 24 25 26 25 24 22 21 20 19 18 19 18 17 17 16 14 12 11 11 12 12 12 11 10 9 9 9 8 8 7 6 6 5 5 10 18 25 27 23 21 22 21 19 19 20 21 21 19 17 17 16 15 17 18 17 13 9 7
14 14 14 13 12 13 14 15 17 19 19 20 21 22 24 25 26 27 27 27 27 28 29 29 29 28 26 26 27 27 25 24 23 22 20 19 19 19 17 16 17 15 13 11 10 11 12 12 11 10 9 8 8 8 7 6 5 5 4 5 5 8 11 17 21 22 22 22 22 21 20 20 19 20 18 16 16 16 16 17 17 16 14 11 8
14 15 14 13 13 13 15 15 17 19 20 20 21 22 23 24 25 26 27 28 28 27 28 28 28 28 27 27 28 27 25 24 23 23 21 19 19 19 17 17 17 15 12 10 10 11 11 10 10 9 8 8 6 5 5 5 4 4 5 6 7 7 9 12 14 14 16 18 21 22 20 20 20 20 19 16 15 16 16 17 17 17 16 14 11
11 13 13 13 13 15 17 17 17 20 21 21 21 22 23 23 23 24 25 26 26 26 26 26 26 26 26 27 27 27 25 24 24 24 23 21 20 20 19 18 18 15 13 12 11 11 11 9 9 8 7 7 6 4 4 4 4 4 4 5 6 7 8 9 11 11 11 11 15 19 21 22 21 21 20 17 16 16 16 17 17 17 16 14 12
12 11 13 14 14 16 19 19 19 19 21 22 23 22 22 22 22 23 24 24 26 26 26 25 25 26 26 26 26 27 26 24 24 25 24 22 21 21 20 20 18 15 14 14 12 11 11 9 9 8 7 7 6 5 4 4 5 5 6 5 6 6 7 8 9 10 10 11 12 15 18 19 19 19 19 17 15 15 16 17 17 17 16 13 12
11 11 13 14 14 16 18 20 20 20 21 23 23 22 22 22 21 22 23 24 25 26 26 24 24 26 27 26 25 26 26 24 24 25 25 22 21 22 20 19 17 16 16 15 13 12 11 9 8 8 7 7 6 5 5 6 7 7 6 6 6 6 6 7 8 8 9 11 12 13 14 15 14 14 15 14 14 15 16 17 17 16 15 13 11
9 11 12 12 13 16 18 20 21 21 21 22 23 23 23 23 23 22 23 24 24 24 25 23 23 24 26 25 23 25 26 26 26 27 26 22 21 22 19 17 17 16 17 16 14 13 12 10 9 8 8 8 7 7 7 7 7 6 6 6 6 6 6 7 7 8 9 10 11 11 12 12 12 11 12 12 12 14 14 15 15 15 14 12 11
10 11 11 12 13 15 16 18 20 21 21 21 22 22 23 24 24 24 24 25 23 22 23 23 22 23 25 25 24 26 27 27 28 29 26 23 23 21 19 18 17 16 17 17 14 13 12 10 10 10 9 9 8 8 8 8 7 6 5 6 6 6 7 7 7 7 8 8 8 8 8 9 9 9 10 10 11 12 13 14 14 13 13 12 11
11 12 12 13 14 14 14 14 17 20 20 21 22 22 23 24 25 25 25 25 23 22 22 23 22 22 25 26 26 27 27 29 30 28 26 26 24 21 19 18 18 17 17 17 15 14 12 11 11 11 10 9 9 9 9 8 7 6 6 6 6 6 7 6 5 6 7 7 7 6 6 7 7 7 8 9 10 11 11 12 13 12 12 12 11
12 13 13 14 14 15 14 14 17 20 21 21 22 23 23 24 25 25 24 24 24 23 22 22 22 23 25 27 27 27 28 30 29 28 28 26 22 22 23 19 17 18 18 16 16 14 12 12 12 12 11 10 10 10 9 8 7 7 6 6 6 7 7 7 5 5 5 5 5 5 5 5 6 7 8 8 9 11 11 11 12 12 12 12 12
14 13 13 14 15 16 16 15 17 20 21 21 22 24 24 23 24 24 23 24 24 24 23 22 23 24 26 27 28 29 29 30 30 30 30 24 20 24 26 19 17 19 18 17 16 14 13 14 14 13 12 11 11 10 10 8 7 7 7 7 7 7 8 8 7 5 4 4 4 4 4 4 4 5 6 7 9 11 10 11 12 12 12 13 13
15 15 15 15 16 16 16 16 17 20 21 22 22 24 24 23 24 24 24 24 24 24 23 23 23 26 27 27 29 29 29 31 31 31 27 22 20 23 23 19 18 19 18 17 16 15 15 15 14 13 12 12 11 10 9 8 8 7 7 7 7 7 7 7 7 5 4 4 4 4 3 4 4 5 7 8 10 11 11 12 12 12 13 14 13
17 16 16 16 16 16 16 16 17 20 21 22 22 23 23 23 23 24 24 24 24 23 23 24 26 28 27 27 29 28 29 32 32 29 25 22 21 22 20 18 19 19 19 17 16 17 17 16 15 14 13 12 11 10 9 9 9 8 8 7 7 7 7 7 6 5 5 5 5 5 4 4 5 6 8 9 11 12 12 12 13 13 14 14 13
17 17 16 16 17 17 17 17 18 20 22 22 21 21 23 23 22 24 24 24 24 24 25 26 28 28 27 28 29 29 31 34 31 27 25 23 23 23 21 20 20 20 19 17 17 18 18 17 16 15 14 13 11 10 11 12 11 9 9 8 8 8 7 7 7 6 6 6 6 5 4 5 5 6 8 10 12 15 14 13 13 15 15 14 13
18 18 17 16 18 18 19 19 19 20 23 23 22 22 23 23 23 24 25 25 25 25 27 29 29 28 28 28 30 31 33 34 29 26 25 24 23 23 21 22 22 21 20 18 18 19 18 17 17 16 14 13 12 12 12 12 12 11 10 9 8 8 8 8 8 8 8 7 6 5 4 5 5 5 7 9 11 14 16 15 15 16 15 15 14
19 19 17 17 19 20 20 20 19 22 25 25 24 24 23 23 24 24 25 25 25 27 29 29 29 30 30 31 32 33 34 32 28 26 26 24 23 22 21 23 23 22 20 18 19 20 19 18 17 16 15 13 12 14 13 12 12 12 12 10 8 8 9 9 9 8 8 7 6 6 5 5 6 7 7 8 10 12 14 15 15 16 17 16 15
20 19 17 17 18 19 19 20 20 23 26 27 26 25 25 25 26 25 25 26 27 29 30 29 29 30 32 32 33 33 33 30 28 27 25 24 23 21 22 24 23 22 21 20 20 21 19 18 17 17 15 14 14 15 15 14 13 13 13 11 8 9 9 9 9 8 8 8 7 7 6 5 7 8 7 8 10 11 12 13 13 14 16 16 15
19 18 16 16 17 17 19 22 24 26 28 28 27 26 25 25 25 25 26 28 29 30 30 29 30 31 31 33 33 31 30 29 29 28 25 24 24 22 23 25 23 23 23 22 21 22 20 19 18 18 16 14 16 17 16 15 14 13 14 12 8 9 10 9 9 9 8 9 8 8 7 6 8 9 8 9 10 11 12 12 11 11 11 12 13
18 16 15 16 17 17 18 21 25 27 27 27 26 25 24 24 25 26 28 29 30 30 29 29 31 32 32 32 31 30 30 29 29 27 25 25 24 23 25 25 22 23 23 22 23 23 22 20 18 18 16 15 17 18 17 17 15 14 15 12 8 9 10 9 9 9 8 9 8 8 7 7 8 9 10 11 11 11 12 12 10 9 8 8 9
15 14 14 15 17 18 18 20 24 25 25 26 26 26 25 26 26 27 29 29 29 30 29 29 33 34 33 31 30 30 30 30 28 27 25 25 24 24 24 22 20 22 24 23 24 24 22 20 19 17 16 15 18 19 18 18 17 16 16 13 9 10 10 9 9 9 8 8 8 8 8 8 8 9 11 13 12 11 11 11 10 9 8 7 8
12 11 13 15 17 19 20 21 23 24 26 26 27 27 26 26 27 28 29 30 29 29 29 31 34 35 32 30 29 30 30 29 28 27 27 26 25 24 22 20 21 25 26 25 24 23 22 21 20 18 16 17 20 20 19 19 18 18 17 13 10 10 10 9 9 8 8 8 8 9 8 7 8 9 11 13 14 12 11 11 10 9 9 7 7
9 10 12 15 18 20 21 23 24 25 25 25 26 27 26 26 28 29 30 30 29 29 31 32 33 33 31 29 29 29 30 29 28 28 28 26 25 23 20 21 25 27 26 24 24 23 22 22 21 18 17 19 22 22 21 20 19 19 18 13 11 11 11 10 9 9 8 8 9 11 10 7 7 9 11 12 14 14 12 11 11 10 9 8 7
8 11 14 16 19 21 22 24 24 24 25 25 26 28 27 27 28 29 31 31 30 31 32 31 32 31 29 28 28 29 29 28 28 28 27 26 26 22 20 23 26 25 24 24 23 22 24 24 21 19 20 21 23 24 23 21 20 20 18 13 11 12 11 11 10 10 9 8 8 12 13 11 8 9 11 12 15 16 13 12 13 12 10 9 8
9 12 16 18 20 21 22 22 24 24 26 27 28 27 27 27 28 30 31 30 30 32 32 31 30 29 28 29 30 29 28 28 28 26 25 26 26 22 21 24 25 23 24 26 24 22 23 23 20 19 21 22 23 25 25 22 21 21 19 14 11 11 12 11 11 10 9 9 8 9 13 15 13 12 12 12 15 17 15 12 13 14 12 10 9
11 13 17 19 20 21 21 22 24 25 26 27 27 26 25 26 27 29 30 29 29 31 31 31 29 27 29 31 30 28 27 27 28 26 24 26 26 22 22 25 24 23 25 26 24 20 21 22 21 19 19 20 23 26 25 23 21 20 20 16 11 9 10 11 10 10 9 9 9 8 10 14 15 15 15 14 15 18 18 13 12 13 14 13 12
12 14 17 18 19 20 22 22 24 26 26 26 26 24 24 24 24 24 26 28 31 32 31 30 28 27 28 29 27 27 28 27 27 25 24 25 25 22 22 23 22 24 26 25 23 21 23 25 22 17 15 16 21 25 24 24 22 20 20 18 12 9 11 11 9 9 8 7 8 8 9 12 14 15 17 16 16 18 20 16 12 13 16 15 12
12 13 16 17 17 18 20 21 23 24 25 25 25 24 23 23 21 21 25 29 31 31 29 27 27 28 28 26 26 29 30 29 27 25 24 25 23 20 21 21 21 24 24 21 22 24 25 24 19 14 12 13 19 24 24 23 22 20 20 19 15 12 13 11 8 7 7 7 6 7 9 10 11 13 16 18 17 17 19 19 16 15 16 15 11
11 12 15 16 16 17 19 20 21 21 22 23 24 23 23 22 20 23 29 29 27 28 27 24 24 27 27 25 25 27 29 29 26 23 23 25 22 19 20 21 21 22 22 20 20 21 22 20 16 13 12 12 16 23 24 23 22 21 19 20 19 15 13 11 9 6 5 6 6 7 8 9 9 11 14 16 17 16 18 20 19 17 17 15 13
10 13 14 15 16 17 18 18 19 20 21 21 22 22 22 19 20 25 30 28 26 27 26 22 21 24 25 25 24 25 25 24 23 23 24 25 23 21 21 21 21 21 20 19 19 18 17 17 15 14 13 12 14 19 24 24 23 22 20 20 19 16 13 13 11 7 6 7 8 8 8 8 8 10 13 14 16 16 18 20 19 18 17 15 14
8 9 13 15 16 16 16 15 15 18 21 21 22 24 22 18 19 23 26 26 27 28 26 23 20 21 23 25 26 25 23 21 21 22 22 22 22 21 21 22 22 21 20 20 20 18 16 15 15 14 14 14 14 17 23 27 25 24 24 21 20 18 16 15 14 11 10 10 10 9 9 8 8 11 12 13 13 15 17 18 17 16 16 14 14
9 7 8 14 15 14 14 14 13 16 19 20 23 25 21 19 21 23 24 26 27 26 24 22 20 21 23 25 26 26 25 24 23 21 19 19 19 19 20 22 22 22 22 21 20 19 17 16 16 15 14 15 14 15 20 27 28 27 26 24 22 20 18 17 16 14 12 11 10 9 9 9 11 12 12 12 11 13 16 16 15 15 14 13 14
11 10 7 11 12 12 12 13 14 16 18 19 21 21 19 22 26 26 25 26 26 24 22 20 20 22 24 24 25 27 27 25 21 18 17 18 18 19 24 27 26 23 22 20 18 19 19 18 17 16 16 15 15 16 21 27 30 29 27 26 24 22 22 21 18 14 10 9 9 9 9 11 12 12 13 13 12 13 15 15 14 14 13 13 14
11 10 9 8 9 12 13 12 12 14 17 19 20 19 20 25 28 29 28 28 25 24 23 20 21 23 23 22 23 24 23 20 18 17 18 18 19 22 26 28 25 21 20 19 19 18 18 18 18 18 19 19 19 21 24 26 26 27 27 27 26 25 24 23 20 16 11 9 9 9 10 12 13 12 13 13 13 14 15 14 13 14 13 13 14
11 10 10 9 9 10 11 10 10 12 16 18 19 19 21 25 27 30 33 34 31 27 23 20 20 21 20 20 20 19 18 17 17 19 21 20 20 22 23 22 22 21 20 21 21 19 19 20 18 18 21 22 21 23 24 23 23 25 26 26 25 25 23 20 19 18 14 9 9 11 12 13 13 13 13 14 13 14 14 13 14 15 15 14 15
12 10 9 9 9 9 10 10 10 12 16 19 20 19 21 24 25 27 28 30 29 26 23 20 19 19 22 23 21 18 18 16 17 22 25 24 21 19 18 19 21 22 20 21 21 19 20 21 20 19 22 22 21 20 20 20 21 23 24 24 24 24 22 20 18 19 16 11 11 11 11 12 14 14 13 14 14 14 14 14 14 16 16 16 16
Wind_Direction
205 197 194 190 184 186 188 178 173 173 173 175 177 182 189 192 192 190 186 185 183 182 186 188 191 194 198 201 201 201 203 204 206 208 207 206 204 198 195 194 191 190 190 191 189 188 191 194 193 191 192 196 200 204 209 205 193 185 178 176 178 171 156 142 139 136 124 107 99 102 99 103 118 126 126 125 127 127 123 121 117 110 107 107 110
215 195 170 174 174 177 187 184 177 174 173 177 179 183 189 193 195 193 188 186 186 184 184 186 190 195 198 201 200 201 202 204 206 206 206 204 202 198 196 194 192 191 190 191 192 190 190 194 194 193 195 198 202 204 206 200 188 183 180 180 185 184 174 159 156 152 139 133 128 111 94 94 101 106 110 118 126 126 123 122 118 115 112 111 115
216 198 168 170 173 177 186 189 185 179 174 176 180 182 187 195 198 196 192 188 187 186 185 184 186 192 197 197 197 198 200 203 205 204 202 202 201 199 197 195 193 192 190 192 194 192 192 193 194 197 198 198 201 202 201 197 189 188 191 189 185 186 186 175 176 177 153 146 146 138 136 124 102 100 107 117 127 125 123 126 122 122 119 116 120
216 208 187 172 172 179 187 190 190 185 175 174 180 183 188 197 199 198 195 191 188 187 185 180 178 185 193 193 193 195 197 198 202 203 200 199 201 200 199 196 193 192 192 193 195 194 194 193 193 198 200 200 203 202 200 199 196 195 197 197 190 188 189 184 190 195 163 151 149 141 161 169 148 140 131 123 131 129 126 130 127 125 124 123 126
223 221 207 181 175 178 183 188 190 187 179 177 183 187 191 196 198 198 197 193 190 187 183 176 174 181 188 189 190 192 195 195 199 201 197 198 201 201 200 197 193 192 193 195 196 197 197 195 195 198 201 204 206 204 203 205 204 201 199 198 198 197 193 186 193 205 181 165 163 151 161 193 175 153 145 135 148 150 141 142 135 130 129 129 135
237 237 228 206 189 183 182 182 184 186 182 181 186 190 190 192 195 198 198 196 192 188 183 175 174 182 185 186 187 189 193 196 198 198 197 199 201 199 199 197 194 192 194 196 196 199 201 200 199 201 204 206 209 209 207 211 213 208 204 202 203 205 205 196 194 204 199 183 180 172 172 195 163 153 152 145 161 169 161 153 147 145 144 141 145
235 242 241 231 213 201 193 184 184 187 184 182 185 187 188 188 192 197 199 198 194 190 185 178 177 184 188 187 186 186 190 194 196 198 198 200 198 197 198 197 195 194 195 197 198 201 203 204 205 207 209 209 212 210 204 214 221 214 207 208 210 208 208 208 201 200 203 202 199 187 174 183 169 162 165 156 159 178 181 177 171 164 159 156 158
227 232 238 238 230 220 211 203 199 194 186 182 182 186 189 190 193 197 200 199 197 193 189 185 181 184 188 188 186 185 186 187 191 195 195 196 197 196 196 196 196 198 198 199 201 204 205 208 210 211 214 212 212 209 202 213 225 226 213 209 214 214 208 210 207 197 197 202 202 193 165 173 174 169 171 168 164 175 181 186 182 174 172 167 164
228 228 232 235 237 234 225 218 215 206 195 188 186 189 189 190 194 199 201 202 201 197 194 192 188 184 185 186 185 184 183 180 186 193 193 194 197 195 194 195 196 200 202 203 205 207 209 211 213 213 216 215 215 213 199 201 220 236 230 214 211 213 211 211 210 201 200 201 197 192 177 171 176 178 183 183 173 160 170 182 179 178 186 183 171
229 230 233 236 238 238 233 227 222 210 199 195 193 190 187 190 196 200 203 204 204 201 198 196 194 189 185 185 185 181 179 178 183 193 194 196 198 195 193 194 195 200 204 206 208 210 212 214 215 216 217 218 219 217 201 191 206 226 238 235 218 207 208 214 213 208 206 204 196 193 190 182 179 186 199 196 178 167 176 178 176 179 182 179 173
227 229 232 237 239 237 233 231 227 213 197 194 194 189 187 190 195 202 206 206 204 202 200 198 198 197 190 186 185 180 177 178 184 191 193 197 200 196 194 195 196 199 201 205 210 212 213 215 217 217 218 222 222 222 215 206 210 215 229 243 231 211 206 213 214 211 210 208 203 199 197 192 186 185 191 190 181 179 178 169 172 176 173 168 170
227 230 231 234 237 233 230 233 232 217 199 193 192 189 189 191 194 200 205 206 205 203 202 200 200 201 196 187 187 184 179 180 184 189 191 196 201 198 196 197 199 201 201 203 209 212 213 214 217 218 220 224 225 229 226 219 222 217 214 227 230 220 213 214 214 212 210 210 211 208 205 202 196 188 181 183 195 193 173 162 165 170 168 163 164
229 231 231 231 232 225 222 228 229 218 204 197 193 193 193 194 196 199 201 203 206 205 203 204 203 202 197 190 191 192 186 182 185 187 190 196 200 199 198 196 199 203 203 205 208 210 212 213 216 219 222 225 228 234 234 227 228 226 215 211 216 223 224 220 214 210 209 212 214 212 211 209 206 201 189 183 198 209 182 162 157 162 165 157 159
230 229 230 230 227 220 217 223 224 216 209 203 197 196 196 195 196 199 201 201 203 206 206 207 206 201 198 194 194 198 195 187 185 185 186 192 198 200 198 197 200 204 204 206 208 207 209 212 215 220 223 225 230 236 240 239 232 237 243 218 207 212 224 222 216 212 210 211 214 212 212 211 204 203 196 185 196 210 192 162 153 158 161 156 163
227 227 228 229 228 223 216 220 221 214 210 206 199 197 196 196 197 200 201 199 200 205 207 209 208 201 198 196 196 201 201 192 186 185 183 186 197 201 198 199 203 205 203 202 203 204 207 210 213 219 223 225 232 239 244 246 240 237 253 242 205 203 212 216 217 218 214 215 221 219 216 211 200 193 191 193 208 215 193 167 157 154 156 162 175
224 223 225 227 229 226 216 216 218 214 213 207 199 196 195 196 198 199 201 198 198 202 206 209 209 203 197 197 199 202 203 196 187 185 184 186 196 201 199 201 204 205 202 196 195 202 207 209 211 214 219 224 230 241 250 250 252 246 241 245 203 196 203 209 214 219 219 221 225 222 216 211 202 197 195 199 214 217 198 176 165 163 164 169 180
228 225 225 224 224 223 217 216 215 215 216 208 199 196 195 196 197 199 200 199 196 199 204 208 208 206 200 199 202 202 201 199 190 183 184 187 196 203 201 200 203 205 198 189 191 200 203 206 207 208 212 218 225 236 249 247 248 252 238 228 190 180 192 202 211 216 216 220 223 216 213 211 208 209 207 205 212 213 201 184 177 181 180 174 178
233 230 227 225 223 222 219 217 215 216 219 212 203 198 197 198 198 197 197 196 195 197 202 206 206 206 203 200 202 201 199 200 194 186 185 186 194 202 200 197 201 198 186 181 187 195 200 200 201 205 207 214 221 226 235 238 239 236 232 230 203 173 174 188 201 207 208 213 218 216 214 214 216 223 223 215 211 208 198 189 192 198 198 195 192
232 232 230 226 224 221 219 219 218 218 220 218 210 202 200 200 199 199 197 195 195 195 199 203 204 205 203 200 201 200 198 199 195 189 186 187 190 195 196 197 197 189 180 182 185 190 197 197 200 205 204 206 210 211 217 224 232 228 223 231 215 177 161 166 174 185 191 201 210 213 215 212 211 218 221 213 206 202 196 195 201 207 211 212 205
231 232 232 229 223 219 218 219 219 218 219 219 215 208 205 203 200 200 198 196 196 196 197 200 202 204 203 200 199 198 196 195 194 191 189 189 188 190 196 196 191 184 181 182 183 189 196 195 197 201 199 202 200 192 200 208 213 209 197 203 194 169 160 160 159 165 171 181 195 203 209 209 206 209 211 205 201 199 198 203 208 210 213 210 204
235 232 233 231 225 221 217 217 219 220 217 216 215 211 206 203 201 199 197 196 196 196 196 196 199 202 201 198 195 195 193 191 190 191 190 188 184 188 194 192 185 181 180 180 183 190 192 187 187 192 196 199 193 182 184 187 184 175 168 171 170 163 160 158 157 159 163 167 176 187 198 202 200 202 204 201 201 200 200 206 208 207 206 198 197
245 241 238 234 228 223 218 215 216 218 216 214 213 211 206 202 199 197 197 197 196 195 194 193 195 200 200 197 193 192 191 187 186 189 189 185 181 185 188 186 182 178 177 180 185 188 186 183 185 188 188 182 175 170 169 172 174 169 168 172 166 160 158 156 155 157 161 166 169 174 183 187 186 190 195 198 199 197 197 201 203 203 200 192 190
265 258 248 241 234 226 219 215 214 214 214 212 209 207 204 200 197 196 197 198 197 194 192 190 193 197 198 195 190 188 187 185 185 188 187 181 178 180 181 182 181 175 175 179 183 186 187 187 186 181 175 169 162 163 168 173 177 175 173 169 163 163 158 152 157 162 164 166 168 169 170 173 175 181 189 193 193 192 194 196 197 197 195 183 174
281 274 259 247 239 229 221 216 213 211 211 209 206 203 201 200 199 198 198 198 196 193 190 188 190 193 194 191 188 186 184 182 186 188 183 176 175 177 179 180 178 172 173 177 181 185 186 185 183 179 172 166 163 167 173 176 179 181 174 164 164 163 153 153 165 167 164 167 170 168 164 166 173 180 186 187 186 188 192 193 188 186 183 169 161
284 279 267 250 239 231 225 219 213 210 208 206 204 202 201 200 200 199 198 195 193 190 188 187 186 189 192 189 186 185 182 182 186 185 178 174 174 177 179 175 173 171 170 172 176 180 182 181 181 178 172 165 165 172 176 178 179 178 169 163 163 156 148 156 172 171 166 166 166 161 156 159 168 177 183 186 185 185 186 185 181 179 176 166 161
286 280 269 254 239 230 226 220 213 210 208 206 205 205 204 201 199 198 195 191 189 188 187 185 184 187 190 187 183 184 181 181 184 181 175 172 173 179 180 173 169 170 168 169 174 178 181 181 176 170 164 161 167 174 177 179 176 167 164 164 158 152 158 169 175 172 170 165 159 153 150 158 170 182 188 185 179 178 179 180 180 179 174 166 164
283 276 266 256 240 228 222 217 213 209 207 207 207 206 205 201 197 194 191 187 185 185 184 183 184 188 189 185 183 183 182 181 181 179 174 170 172 179 180 175 169 168 169 174 179 180 179 176 172 165 158 159 167 174 177 177 169 163 163 164 156 153 169 185 185 178 172 159 149 146 146 158 173 187 191 184 176 176 180 181 179 176 170 166 167
277 269 260 253 241 226 218 213 211 209 207 206 206 205 202 198 194 189 186 183 180 181 182 182 185 187 186 184 182 181 181 180 179 176 171 168 172 176 176 172 169 169 171 174 176 177 175 171 169 163 157 161 169 173 175 171 166 165 164 165 164 160 168 183 184 175 168 158 149 145 145 155 174 188 188 184 181 179 179 179 177 174 171 171 172
275 270 259 248 239 225 214 209 207 207 206 204 204 201 197 194 190 186 183 180 178 179 181 182 186 187 182 181 180 178 177 177 175 171 168 168 172 172 170 168 167 170 173 171 167 169 171 170 168 162 159 166 170 174 176 170 164 166 165 165 168 165 166 174 173 170 172 167 157 151 157 170 186 196 194 189 188 184 178 177 177 176 175 175 176
273 270 258 241 231 221 210 205 203 205 205 203 201 197 192 188 185 183 182 179 178 180 182 184 186 183 178 178 178 176 174 175 171 167 166 168 170 170 167 164 166 171 173 168 162 164 169 169 165 161 164 168 173 182 185 177 169 167 165 166 168 169 171 170 167 173 178 172 162 157 180 196 197 200 200 198 199 195 187 183 181 178 179 180 180
270 264 253 236 225 215 206 201 200 202 203 201 198 194 189 184 181 180 179 177 177 181 185 186 183 178 176 177 176 173 173 172 168 164 165 166 168 168 165 161 165 171 170 165 162 165 171 169 163 163 168 171 178 186 185 182 179 172 165 167 170 171 172 172 174 180 179 172 163 158 182 199 190 187 192 196 202 202 197 196 193 186 182 183 183
268 260 249 234 222 210 202 198 197 198 199 198 195 190 186 182 180 179 177 176 178 183 186 184 178 175 175 174 174 174 173 169 164 163 165 165 166 165 161 162 167 169 168 166 164 167 172 169 164 167 171 174 181 182 177 178 179 174 166 165 171 174 172 175 181 184 179 174 169 166 168 174 181 185 184 188 196 198 200 204 203 196 190 185 185
266 254 243 231 218 207 200 195 193 195 196 194 191 188 185 182 180 178 176 176 181 185 184 178 173 173 173 172 173 173 170 165 164 164 163 164 165 162 160 164 166 167 169 170 166 168 172 169 166 170 172 175 179 177 174 175 175 173 167 162 169 177 175 178 182 182 181 179 178 178 171 169 183 184 176 182 191 191 193 199 201 201 199 196 196
259 246 234 224 212 203 198 194 192 192 191 190 189 186 183 180 176 174 175 180 183 184 180 174 172 172 171 170 171 170 166 164 164 163 162 164 163 160 162 166 165 166 170 170 167 170 173 169 168 171 171 175 177 174 173 174 172 170 166 161 168 177 177 181 184 183 186 185 185 188 183 180 187 183 174 178 186 187 186 186 187 191 198 205 209
247 235 224 215 206 200 196 192 190 187 185 185 185 182 177 174 172 172 178 182 182 179 175 171 168 168 168 168 168 167 164 164 164 162 162 162 160 160 164 165 164 166 170 171 171 173 174 171 170 172 171 175 178 175 173 173 173 169 164 160 167 175 176 182 184 186 190 190 191 194 193 190 186 185 185 183 180 181 180 176 175 178 183 194 203
239 226 217 209 200 194 191 187 184 181 179 179 178 174 172 171 171 175 180 181 178 174 171 167 166 167 167 166 165 166 166 165 164 162 161 160 160 162 163 161 161 168 171 172 174 176 177 174 173 172 170 175 179 177 175 175 174 169 164 163 171 176 177 182 184 187 192 193 196 199 201 199 191 190 200 198 186 179 177 176 177 178 176 179 193
236 222 210 201 194 188 182 178 176 175 174 174 172 171 171 172 172 175 178 177 174 172 168 165 166 167 165 163 164 165 166 165 163 163 163 161 160 162 161 159 164 170 172 172 175 178 180 179 176 173 170 175 180 180 178 177 175 170 167 168 175 177 179 182 183 188 191 193 198 199 199 204 200 201 213 211 199 189 185 184 184 181 176 173 188
223 207 194 186 182 176 170 168 168 169 170 169 169 170 172 173 173 174 174 173 171 169 165 163 166 165 161 163 166 167 166 165 162 164 165 161 159 161 161 163 169 171 171 173 177 179 179 180 179 176 174 178 181 181 180 179 177 173 169 171 177 177 179 183 183 187 191 195 204 206 202 199 202 209 219 217 206 198 195 192 186 179 179 182 187
195 184 175 170 167 163 162 163 164 165 167 167 169 171 173 174 173 172 172 172 171 169 166 164 164 163 160 164 169 168 165 163 161 164 165 161 160 161 163 168 173 173 171 175 178 178 178 179 179 178 180 183 184 183 183 181 179 176 172 174 181 180 180 184 185 187 192 196 207 214 212 208 206 213 221 218 208 202 198 194 186 179 183 192 189
172 167 163 160 159 158 158 161 162 164 166 167 170 174 175 174 172 171 172 171 169 167 166 163 160 159 162 169 170 168 165 163 161 162 163 161 160 162 168 173 175 173 174 177 178 176 175 176 175 177 184 188 187 186 184 181 181 180 175 174 182 184 183 185 187 187 190 194 199 209 217 220 221 223 226 222 215 207 200 194 191 187 190 190 177
151 152 153 154 156 156 157 159 161 162 165 167 171 174 174 171 171 172 171 167 163 162 161 159 155 157 165 171 171 167 164 162 161 162 163 164 163 166 172 173 172 173 177 179 179 175 172 172 173 175 181 188 192 190 185 182 183 183 178 175 181 190 186 183 186 189 191 198 201 202 213 222 224 225 225 223 220 213 205 200 202 200 196 188 174
141 148 150 149 151 154 155 157 158 160 163 167 169 170 168 165 168 169 164 159 159 159 158 156 155 159 166 170 170 167 163 161 161 163 165 165 164 167 171 170 171 175 178 180 180 178 175 175 177 177 175 185 194 193 188 184 184 185 185 181 179 189 189 180 181 193 197 202 207 206 214 226 229 227 224 222 220 217 210 206 208 206 201 198 189
140 145 145 144 146 149 150 152 155 159 162 163 162 161 160 159 160 160 157 155 155 155 153 153 157 164 168 168 167 167 165 163 164 166 166 164 162 164 168 168 170 174 178 181 181 181 180 179 178 176 173 182 192 194 192 189 185 186 190 189 188 197 200 191 186 196 204 211 216 210 218 236 240 231 225 221 217 217 214 210 209 206 204 204 199
130 131 136 139 141 143 145 148 152 156 159 159 157 156 156 156 156 155 154 152 151 150 150 153 161 167 168 167 165 165 166 165 164 166 166 162 160 162 167 169 170 172 175 175 173 176 179 177 174 172 171 175 185 191 194 194 191 190 192 195 200 205 208 205 202 201 208 215 214 209 222 249 252 233 225 220 215 215 215 213 213 209 204 201 193
111 122 131 137 139 141 143 144 148 154 157 158 156 154 154 153 152 154 154 153 154 157 156 157 162 166 166 165 163 162 163 164 166 169 167 162 160 164 167 170 171 171 170 170 170 172 174 171 169 169 170 171 176 185 192 195 196 196 195 198 203 205 205 206 206 204 210 211 210 218 238 259 251 228 220 216 212 213 214 213 214 209 202 197 191
78 110 127 134 138 142 142 141 146 153 156 157 157 156 154 149 149 154 154 154 157 162 161 160 161 162 162 163 162 163 165 168 172 173 167 161 163 167 168 169 171 173 173 173 176 178 174 170 170 169 169 170 171 180 191 195 197 199 199 200 202 202 204 207 206 208 215 216 219 232 242 238 218 208 207 206 208 213 214 211 209 205 199 197 197
41 60 113 133 137 139 143 145 147 148 150 155 160 158 152 146 151 156 157 157 159 160 158 158 159 159 159 161 164 168 171 171 171 169 164 162 166 168 167 167 170 175 177 176 176 178 176 174 174 169 166 169 170 172 185 194 196 198 200 201 201 202 205 207 207 211 218 219 224 232 225 202 189 187 187 189 198 208 210 206 203 203 202 201 203
33 33 76 127 137 137 138 140 142 146 151 155 155 151 147 150 155 158 157 158 161 160 157 156 160 162 162 162 165 168 169 167 166 164 162 164 169 171 172 173 175 177 176 173 174 179 183 183 181 174 169 173 177 180 187 194 196 197 199 200 201 204 208 207 206 207 206 204 211 214 198 182 179 180 182 184 190 197 200 200 200 200 201 203 205
37 36 49 88 125 136 133 128 132 144 153 151 145 144 150 155 158 159 158 156 158 161 160 159 162 165 166 165 165 166 164 160 158 158 159 164 171 174 174 177 181 181 178 176 174 177 184 187 185 183 182 183 189 196 199 198 197 198 200 202 204 207 210 210 207 201 188 182 190 190 184 183 184 184 187 188 187 188 191 192 193 194 196 201 204
36 47 54 62 89 120 127 124 126 134 142 144 145 151 159 161 162 165 165 162 160 161 162 163 166 167 167 165 164 163 159 155 154 154 154 155 163 171 174 176 179 180 182 185 182 181 185 185 180 184 192 195 200 208 209 203 199 202 205 206 208 210 208 206 206 201 194 194 203 199 193 195 195 193 194 195 190 189 191 191 194 201 205 207 209
27 44 59 67 78 98 112 119 129 135 142 151 158 164 168 169 169 169 169 168 166 162 160 162 168 170 169 167 164 161 157 154 154 157 156 152 152 160 167 173 176 178 183 190 193 194 195 191 183 184 192 196 202 211 212 206 202 205 206 207 211 211 208 208 211 207 201 204 214 211 205 205 205 204 203 201 198 198 199 198 200 207 211 212 213